Regional Weather Roundup
Issued by NWS

Home | Current Version | Previous Version | Graphics & Text | Print | Product List | Glossary On
Versions: 1 2 3 4 5 6 7 8 9 10 11 12 13 14 15 16 17 18 19 20 21 22 23 24 25 26 27 28 29 30 31 32 33 34 35 36 37 38 39 40 41 42 43 44 45 46 47 48 49 50
000
ASUS43 KBIS 271920
RWRND

NORTH DAKOTA REGIONAL WEATHER ROUNDUP
NATIONAL WEATHER SERVICE BISMARCK ND
100 PM CST TUE JAN 27 2015

NOTE: "FAIR" INDICATES FEW OR NO CLOUDS BELOW 12,000 FEET WITH NO
SIGNIFICANT WEATHER AND/OR OBSTRUCTIONS TO VISIBILITY.


NDZ001>003-009>011-017-272000-
NORTHWEST NORTH DAKOTA

CITY           SKY/WX    TMP DP  RH WIND       PRES   REMARKS
WILLISTON      PTSUNNY   46  34  62 S5        29.83F
MINOT          PTSUNNY   44  34  67 SW7       29.80F
MINOT AFB      PTSUNNY   42  41  96 S3        29.80F
$$

NDZ018>021-031>035-040>046-272000-
SOUTHWEST NORTH DAKOTA

CITY           SKY/WX    TMP DP  RH WIND       PRES   REMARKS
BISMARCK       MOSUNNY   47  32  56 SW10      29.87F
DICKINSON      SUNNY     60  36  40 W9        29.83F
GARRISON         N/A     42  36  79 S7        29.81F
HETTINGER ARPT SUNNY     57  36  45 W10       29.88F
$$

NDZ004>008-012>016-024-026-027-054-272000-
NORTHEAST NORTH DAKOTA

CITY           SKY/WX    TMP DP  RH WIND       PRES   REMARKS
GRAND FORKS    CLOUDY    30  28  92 S16G22    30.00F FOG     WCI  19
GRND FRKS AFB  CLOUDY    30  28  94 S13       29.99F FOG     WCI  20
DEVILS LAKE    MOSUNNY   36  30  80 S17       29.88F
$$

NDZ022-023-025-028>030-036>039-047>053-272000-
SOUTHEAST NORTH DAKOTA

CITY           SKY/WX    TMP DP  RH WIND       PRES   REMARKS
FARGO          CLOUDY    31  29  92 SE17G24   30.03F WCI  19
JAMESTOWN      SUNNY     39  34  82 S17G24    29.90F
$$



USA.gov is the U.S. government's official web portal to all federal, state and local government web resources and services.